General Aviation Weather

Text Reports

Enter one or more of the following location identifiers separated by a space:

Zip Code, Four-Character ICAO or Three-Character IATA airport codes.

METAR - Aviation Routine Weather Report
KLHB - Hearne, Texas
Updated at 10:15 AM GMT on October 02, 2014 (5:15 AM CDT):
METAR KLHB 021015Z AUTO 14005KT 7SM CLR 24/24 A2983 RMK AO2 T02410235
TAF - Terminal Area Forecast
KLHB - Hearne, Texas
Updated at 10:15 AM GMT on October 02, 2014 (5:15 AM CDT):
No TAF is currently available for this location.
Decoded:
No decoded TAF is available.
PIREP - Pilot Weather Report
KLHB - Hearne, Texas
Updated at 10:15 AM GMT on October 02, 2014 (5:15 AM CDT):
No PIREP is currently available for this location.
AIRMET - Airmens Meteorological Information
KLHB - Hearne, Texas
Updated at 10:15 AM GMT on October 02, 2014 (5:15 AM CDT):
No AIRMET is currently available for this location.
SIGMET - Significant Meteorological Information
KLHB - Hearne, Texas
Updated at 10:15 AM GMT on October 02, 2014 (5:15 AM CDT):
No SIGMET is currently available for this location.
NOTAM - Notice to Airmen
KLHB - Hearne, Texas
Updated at 10:15 AM GMT on October 02, 2014 (5:15 AM CDT):
No NOTAM is currently available for this location.
Forecast Area
KLHB - Hearne, Texas
Updated at 10:15 AM GMT on October 02, 2014 (5:15 AM CDT):
No NOTAM is currently available for this location.
Aviation Weather Maps